This is the latest recevied weather packets stored in our database for station/object KB1RMA-4. If no packets are shown the sender has not sent any weather packets the latest 10 day(s).
| Time | Temp. | Humidity | Pressure | Rain* | Wind** | Luminosity | Snow |
|---|---|---|---|---|---|---|---|
| 1787866741 | 27.78° C | 53% | 1015.7 hPa | 0 mm | - | 78 W/m² | - |
| 1787866440 | 27.78° C | 51% | 1015.5 hPa | 0 mm | - | 90 W/m² | - |
| 1787866134 | 28.33° C | 51% | 1015.9 hPa | 0 mm | - | 105 W/m² | - |
| 1787865834 | 28.89° C | 49% | 1016 hPa | 0 mm | - | 117 W/m² | - |
| 1787865530 | 28.89° C | 49% | 1015.9 hPa | 0 mm | - | 223 W/m² | - |
| 1787865224 | 28.89° C | 49% | 1016.1 hPa | 0 mm | - | 240 W/m² | - |
| 1787864921 | 28.89° C | 49% | 1015.5 hPa | 0 mm | - | 239 W/m² | - |
| 1787864616 | 29.44° C | 49% | 1015.5 hPa | 0 mm | - | 255 W/m² | - |
| 1787864310 | 29.44° C | 48% | 1015.8 hPa | 0 mm | - | 250 W/m² | - |
| 1787864004 | 29.44° C | 50% | 1015.9 hPa | 0 mm | - | 263 W/m² | - |
| 1787863703 | 29.44° C | 50% | 1015.8 hPa | 0 mm | - | 302 W/m² | - |
| 1787863402 | 29.44° C | 50% | 1015.7 hPa | 0 mm | - | 192 W/m² | - |
| 1787863098 | 29.44° C | 50% | 1016.1 hPa | 0 mm | - | 314 W/m² | - |
| 1787862793 | 29.44° C | 51% | 1016.2 hPa | 0 mm | - | 303 W/m² | - |
| 1787862493 | 29.44° C | 50% | 1016 hPa | 0 mm | - | 378 W/m² | - |
| 1787862188 | 28.89° C | 51% | 1016.1 hPa | 0 mm | - | 471 W/m² | - |
| 1787861883 | 28.89° C | 53% | 1016.2 hPa | 0 mm | - | 223 W/m² | - |
| 1787861582 | 28.89° C | 53% | 1016.2 hPa | 0 mm | - | 137 W/m² | - |
| 1787861276 | 29.44° C | 52% | 1016 hPa | 0 mm | - | 146 W/m² | - |
| 1787860976 | 30° C | 51% | 1016.1 hPa | 0 mm | - | 345 W/m² | - |
| 1787860675 | 29.44° C | 51% | 1016.3 hPa | 0 mm | - | 453 W/m² | - |
| 1787860371 | 29.44° C | 51% | 1016.3 hPa | 0 mm | - | 348 W/m² | - |
| 1787860071 | 29.44° C | 52% | 1016.2 hPa | 0 mm | - | 250 W/m² | - |
| 1787859767 | 29.44° C | 53% | 1016.2 hPa | 0 mm | - | 504 W/m² | - |
| 1787859467 | 28.89° C | 55% | 1016.1 hPa | 0 mm | - | 550 W/m² | - |
* Rain latest hour (hover to see other rain measurements)
** Current wind speed in m/s (hover to see current wind gust speed)